Location: Sternwarte-Kraichtal
(49.1689°N, 8.6996°E)
Time: 20:44:19
(UTC+02:00)

Vanguard 2 Rocket - Pass Details

Date: 29 May 2022
Orbit: 553 x 3323 km, 32.9° (Epoch: 02 July)

Event Time Altitude Azimuth Distance (km) Brightness Sun altitude
Rises 13:12:27 0° 220° (SW) 7,137 11.7 62.4°
Reaches altitude 10° 13:17:52 10° 213° (SSW) 6,241 11.6 62.5°
Maximum altitude 13:34:31 34° 158° (SSE) 4,328 11.5 62.4°
Drops below altitude 10° 13:48:15 10° 101° (ESE) 5,186 10.9 62.0°
Sets 13:52:10 0° 93° (E) 5,848 11.0 61.9°
